Wind_Speed
26 25 25 25 25 24 25 25 25 24 25 26 24 25 26 26 26 26 25 25 25 25 25 26 26 25 24 23 23 23 23 23 23 23 23 22 21 21 21 22 22 22 22 21
28 27 27 27 27 28 26 26 27 26 27 28 27 28 27 27 28 29 27 26 27 27 27 27 27 27 26 25 25 25 24 24 25 24 24 23 23 23 23 23 23 23 23 23
29 28 29 31 29 29 30 29 28 28 29 30 30 29 29 29 29 29 30 29 29 29 29 29 28 27 27 27 26 26 26 26 26 25 25 24 25 25 24 24 24 24 24 24
30 30 31 29 30 30 31 31 31 31 31 31 30 30 30 30 30 30 31 31 31 30 29 28 29 29 28 28 28 27 27 27 27 26 26 25 25 26 26 25 24 24 24 24
31 31 31 30 30 29 29 31 31 31 31 31 30 31 30 31 31 31 31 30 30 30 29 29 29 29 28 28 28 28 28 28 28 28 28 27 26 26 27 26 25 25 25 25
30 31 31 30 30 30 30 33 33 33 33 32 30 31 30 31 32 32 32 30 30 30 29 29 29 29 29 28 27 28 28 28 28 29 28 28 28 27 27 27 27 26 26 26
29 30 30 30 29 30 31 33 34 33 33 34 34 33 33 33 33 33 32 31 31 31 31 30 30 30 29 29 28 28 29 29 29 29 29 29 28 28 28 27 27 27 27 27
28 30 31 30 29 30 32 32 32 33 33 34 34 34 34 33 33 32 32 32 32 31 31 30 30 30 30 29 29 29 29 30 30 30 30 30 29 29 28 28 27 27 27 27
29 29 31 30 30 31 31 32 32 32 32 33 33 35 35 34 33 33 32 32 31 31 30 29 29 30 30 30 30 30 30 29 30 30 30 30 30 29 29 29 28 27 27 27
29 30 31 31 31 32 32 32 32 31 32 33 33 34 35 34 33 32 31 31 31 31 30 30 30 29 29 29 30 30 30 30 30 30 30 30 30 30 30 29 29 28 28 27
29 29 30 31 31 31 32 32 31 31 32 33 33 33 33 33 32 32 32 31 31 31 31 31 30 29 29 29 29 29 30 29 30 30 30 29 29 29 29 28 28 27 27 27
30 30 31 30 30 30 31 30 30 31 31 32 32 32 33 32 32 32 32 32 32 32 32 31 30 30 30 30 29 29 29 28 29 29 29 29 28 28 28 28 27 27 27 27
29 29 30 30 29 29 29 29 30 30 30 30 30 31 31 31 32 32 32 32 31 31 30 30 30 30 30 30 29 29 28 28 28 28 28 28 28 28 28 28 28 28 28 28
28 28 29 29 29 28 28 28 29 29 29 30 30 31 31 31 32 32 32 32 32 31 30 30 29 29 29 29 29 29 29 28 28 28 28 28 28 29 29 29 29 29 28 28
26 27 27 27 28 28 28 28 29 29 29 30 30 31 31 31 31 31 31 31 31 30 30 30 29 29 29 29 29 28 29 29 28 28 28 28 29 29 30 29 29 29 29 29
24 24 25 26 26 26 27 26 27 27 28 28 28 29 29 30 30 30 31 30 30 29 29 29 29 29 29 29 29 28 28 28 28 28 28 28 29 30 30 29 29 29 29 29
24 25 25 25 25 25 25 25 26 27 27 26 26 27 28 29 29 29 29 29 29 29 29 29 29 29 29 29 29 29 29 29 29 29 29 29 29 29 29 30 30 29 29 29
24 25 25 24 24 24 24 25 25 25 25 25 26 26 27 27 26 26 26 27 27 27 27 27 27 27 28 28 28 29 29 29 29 29 29 29 29 29 29 29 29 29 29 30
22 22 22 22 22 22 22 22 22 23 23 24 23 24 25 25 25 25 24 25 25 25 24 25 26 26 26 26 26 27 27 28 28 28 28 28 29 30 30 30 30 30 30 30
20 20 20 20 21 21 21 20 20 21 21 22 22 23 24 24 23 23 24 24 23 23 23 23 24 25 25 25 26 25 25 26 26 27 27 27 28 28 29 30 31 31 31 31
19 19 19 19 19 20 19 19 19 20 21 21 22 23 24 24 23 22 22 22 23 23 23 22 23 24 24 25 25 25 25 25 25 26 26 27 27 27 28 29 30 31 32 32
18 18 18 18 18 19 19 18 18 19 19 20 21 21 21 22 22 22 22 22 22 22 22 22 23 24 24 24 25 25 25 25 26 26 26 27 27 28 28 29 30 31 31 32
18 18 18 18 19 18 19 19 19 19 20 20 20 20 20 20 20 21 20 21 21 21 22 23 24 23 24 24 25 25 25 26 26 26 27 27 28 28 29 29 30 30 31 30
18 17 17 17 18 18 18 18 19 20 20 20 20 20 20 19 19 20 20 21 21 21 22 23 24 24 25 25 25 25 25 26 26 26 27 27 27 27 28 28 28 28 28 28
17 17 17 17 17 17 17 17 17 17 17 17 18 19 19 20 20 21 21 21 22 23 23 23 24 25 25 25 25 25 26 25 26 26 26 25 25 26 26 26 27 26 26 25
17 17 16 16 16 16 16 16 17 17 18 19 19 19 19 20 20 21 21 22 22 23 23 23 24 24 24 25 25 26 26 26 25 25 25 25 25 25 25 24 24 24 24 24
15 15 14 14 15 16 16 17 17 18 18 19 20 19 19 20 20 20 21 21 22 23 23 24 24 24 24 24 24 25 24 24 24 24 24 25 25 25 24 24 24 23 23 24
Wind_Direction
242 240 243 247 245 247 249 245 247 253 256 258 263 265 265 263 266 268 269 272 274 274 273 273 274 273 273 272 273 274 273 273 275 274 275 274 275 274 273 273 274 273 274 273
245 241 243 246 247 246 248 249 248 249 253 257 259 261 263 265 267 269 272 273 273 273 274 274 274 272 270 272 272 272 272 274 274 273 274 274 275 274 273 272 272 273 273 272
247 246 247 246 248 249 247 247 249 251 255 256 259 261 263 266 269 270 272 272 272 273 273 272 272 271 270 272 272 273 272 272 273 272 272 273 274 273 272 272 270 271 272 271
250 249 251 252 251 252 251 250 250 252 254 255 257 261 263 266 268 271 272 273 274 272 271 271 271 271 271 271 271 272 272 272 272 271 270 271 273 273 271 271 271 271 270 269
251 251 254 252 252 252 251 251 252 254 255 257 261 263 264 267 268 271 272 274 275 274 273 272 271 271 270 270 270 271 271 271 271 271 269 269 271 272 271 270 270 269 268 269
250 250 252 253 255 256 256 254 252 255 258 259 262 263 266 267 268 271 273 273 273 273 271 271 269 270 269 268 269 270 271 270 269 269 268 268 269 270 270 270 269 268 267 266
251 252 252 252 255 257 256 258 257 256 259 261 263 265 267 268 269 270 272 273 273 272 271 271 269 269 269 270 270 269 269 269 269 269 268 269 269 270 270 269 268 265 264 264
254 253 253 254 256 257 258 258 260 259 260 263 264 265 267 267 268 268 271 273 273 271 271 272 270 269 269 271 273 272 272 271 269 268 269 269 268 269 270 271 271 268 263 263
254 256 256 258 258 259 259 259 261 261 262 264 264 266 267 268 268 268 270 271 271 271 271 271 270 269 268 269 272 273 273 271 270 269 269 268 267 268 269 269 269 269 266 263
255 257 258 257 258 261 263 264 264 264 263 263 264 264 265 267 267 267 268 269 270 270 270 269 270 271 269 268 269 270 271 270 270 270 269 268 267 268 269 270 269 269 267 265
257 258 261 259 260 261 263 265 265 264 265 266 265 264 265 266 266 265 266 267 268 269 269 268 269 270 271 271 270 271 269 269 270 268 268 269 269 269 269 269 270 270 268 266
259 259 259 260 262 264 265 265 265 264 264 266 266 264 264 264 265 265 265 266 267 268 268 269 270 271 272 272 273 273 272 271 270 268 268 269 269 269 268 269 268 267 266 266
262 261 261 262 264 267 265 265 266 265 265 266 265 265 264 264 264 265 265 266 267 268 268 268 268 269 270 271 272 272 272 271 271 271 270 269 269 269 270 269 268 266 265 264
264 263 262 263 265 268 267 266 266 266 265 266 265 264 265 266 265 265 265 266 266 267 267 267 267 268 269 270 272 271 270 270 272 273 271 270 269 268 268 267 267 267 266 265
264 264 265 267 267 268 268 267 267 266 267 266 266 266 266 267 267 266 265 264 266 267 267 267 267 268 270 271 272 271 270 270 271 272 271 270 270 269 268 268 268 268 267 265
265 267 269 270 270 271 271 269 268 268 268 267 267 267 267 268 269 267 265 264 264 265 265 265 266 268 269 270 271 271 272 271 271 272 272 271 271 270 269 267 267 267 267 266
269 269 270 272 272 272 269 269 269 268 267 267 267 268 269 271 270 268 266 265 265 265 264 265 267 268 269 270 271 272 273 272 271 272 273 272 272 270 269 267 267 266 267 266
271 270 270 271 271 269 268 268 268 267 266 267 269 270 271 271 271 269 267 267 266 264 264 266 267 268 269 270 272 273 273 272 272 273 273 273 273 271 269 269 268 268 268 267
271 270 269 270 270 269 269 269 269 270 270 269 270 270 271 271 270 268 267 266 264 263 265 267 267 269 271 273 274 275 274 274 273 273 273 273 273 273 272 270 269 269 269 268
273 272 271 271 272 272 272 272 272 272 272 271 272 273 272 271 270 267 265 266 266 266 267 268 270 270 272 273 274 275 276 276 275 274 274 274 274 274 272 271 270 269 268 268
274 272 271 270 270 270 271 272 272 273 272 273 275 275 274 272 271 269 267 267 268 268 269 270 272 273 275 275 275 275 276 276 275 274 273 274 274 274 274 273 271 270 269 269
273 271 271 270 269 269 270 271 273 275 277 276 276 278 277 275 273 272 270 270 269 269 270 271 274 276 277 276 275 274 274 274 276 276 275 275 275 276 276 275 274 273 272 271
276 273 272 271 271 270 271 271 273 276 278 278 278 279 278 276 273 271 270 271 271 271 271 273 274 275 276 277 276 275 275 276 277 278 278 277 277 277 276 275 275 273 272 271
276 274 274 273 272 270 269 271 275 278 278 278 279 278 279 277 275 274 273 273 274 274 274 274 275 277 278 279 279 278 278 278 278 278 278 278 279 278 277 275 275 275 274 272
276 274 275 275 275 276 274 274 276 277 277 278 280 280 280 280 280 279 278 276 275 275 275 276 277 278 278 279 280 280 279 279 281 281 280 280 280 280 279 278 277 276 275 273
276 277 277 275 275 277 277 278 280 281 281 282 282 282 281 280 279 279 280 278 277 277 278 279 280 280 279 279 279 279 280 281 282 281 281 281 281 281 281 279 277 276 275 274
279 280 280 278 279 279 278 279 283 284 283 283 283 281 282 282 281 282 281 280 279 279 280 281 282 281 280 279 278 279 279 281 281 281 280 281 281 280 280 279 278 278 277 275
Height
5795 5797 5798 5800 5801 5803 5803 5804 5807 5807 5807 5806 5805 5806 5806 5806 5806 5807 5807 5808 5808 5807 5807 5808 5808 5808 5808 5807 5807 5807 5807 5807 5807 5807 5807 5806 5806 5806 5806 5806 5806 5806 5806 5806
5787 5789 5791 5792 5793 5796 5797 5798 5799 5800 5801 5800 5799 5799 5799 5800 5800 5800 5801 5801 5801 5801 5801 5801 5801 5801 5801 5801 5801 5801 5800 5800 5800 5800 5800 5800 5800 5800 5800 5800 5800 5800 5800 5800
5779 5781 5782 5784 5786 5788 5789 5790 5792 5793 5794 5793 5792 5792 5792 5793 5793 5793 5794 5794 5794 5793 5793 5793 5793 5793 5793 5793 5793 5793 5793 5793 5793 5793 5793 5793 5793 5793 5793 5793 5793 5793 5793 5793
5770 5773 5773 5779 5779 5780 5781 5781 5783 5784 5785 5784 5785 5784 5785 5785 5785 5785 5786 5786 5786 5785 5785 5785 5785 5785 5785 5785 5785 5785 5785 5785 5785 5785 5785 5785 5785 5785 5785 5785 5785 5786 5786 5786
5763 5764 5765 5769 5769 5771 5773 5773 5774 5776 5776 5776 5777 5777 5777 5777 5777 5778 5778 5778 5778 5777 5777 5777 5777 5777 5777 5777 5777 5777 5777 5777 5777 5777 5777 5778 5778 5777 5777 5777 5777 5777 5778 5778
5754 5756 5758 5761 5761 5762 5765 5764 5765 5766 5767 5767 5768 5769 5768 5769 5769 5769 5770 5770 5769 5769 5769 5769 5769 5769 5769 5769 5768 5769 5769 5768 5769 5769 5769 5770 5770 5770 5769 5769 5769 5769 5770 5770
5746 5747 5749 5751 5752 5754 5757 5756 5757 5758 5759 5760 5761 5761 5761 5761 5761 5761 5761 5761 5761 5761 5761 5761 5761 5761 5761 5760 5760 5760 5760 5760 5760 5760 5761 5761 5761 5761 5761 5761 5761 5761 5762 5762
5738 5740 5743 5743 5744 5746 5746 5746 5747 5749 5750 5751 5752 5751 5751 5751 5752 5752 5752 5752 5752 5752 5752 5752 5752 5752 5752 5752 5752 5752 5752 5751 5751 5752 5752 5752 5753 5753 5753 5752 5753 5753 5753 5754
5733 5734 5734 5735 5736 5737 5737 5738 5739 5740 5741 5742 5742 5742 5741 5742 5742 5743 5743 5743 5743 5743 5744 5744 5744 5743 5743 5744 5744 5744 5743 5743 5743 5743 5743 5743 5744 5744 5744 5744 5744 5745 5745 5746
5724 5725 5725 5727 5728 5728 5728 5729 5730 5730 5731 5732 5732 5732 5732 5733 5733 5734 5734 5734 5734 5734 5735 5735 5735 5734 5735 5735 5735 5735 5734 5734 5734 5734 5734 5735 5735 5735 5735 5735 5735 5736 5737 5738
5716 5717 5717 5718 5718 5719 5720 5720 5721 5721 5722 5722 5722 5723 5722 5724 5724 5724 5725 5725 5725 5725 5726 5726 5726 5726 5726 5726 5726 5725 5725 5725 5725 5725 5725 5726 5726 5726 5727 5727 5727 5727 5728 5729
5708 5709 5709 5710 5710 5711 5711 5712 5712 5712 5712 5713 5713 5713 5713 5714 5715 5715 5716 5716 5716 5716 5717 5717 5717 5717 5718 5717 5717 5716 5716 5716 5716 5716 5716 5717 5717 5718 5718 5718 5719 5719 5720 5721
5700 5701 5701 5702 5702 5701 5702 5702 5703 5703 5704 5704 5704 5704 5705 5705 5706 5706 5707 5707 5707 5708 5708 5708 5709 5709 5709 5708 5708 5708 5708 5708 5708 5708 5708 5708 5708 5709 5709 5710 5710 5711 5711 5712
5692 5693 5693 5693 5693 5693 5693 5694 5694 5694 5695 5695 5695 5696 5696 5696 5697 5697 5698 5698 5698 5699 5699 5699 5700 5700 5700 5700 5699 5699 5699 5699 5699 5699 5699 5699 5699 5700 5700 5701 5702 5702 5703 5704
5684 5684 5685 5685 5685 5685 5685 5685 5686 5686 5686 5686 5686 5687 5687 5687 5687 5688 5688 5689 5689 5690 5690 5691 5691 5691 5692 5691 5691 5690 5690 5690 5690 5690 5690 5690 5691 5691 5691 5691 5692 5693 5694 5695
5677 5677 5678 5678 5678 5678 5677 5677 5677 5677 5677 5678 5678 5678 5678 5678 5678 5679 5679 5680 5680 5681 5681 5682 5682 5683 5683 5683 5683 5682 5682 5682 5681 5681 5681 5681 5682 5682 5682 5682 5683 5684 5685 5685
5670 5670 5671 5670 5670 5670 5670 5670 5669 5669 5669 5669 5670 5670 5670 5670 5670 5670 5670 5671 5672 5672 5673 5674 5674 5674 5674 5674 5674 5673 5673 5673 5673 5672 5672 5672 5672 5673 5673 5673 5673 5674 5675 5676
5662 5663 5663 5663 5663 5662 5662 5662 5662 5662 5662 5662 5662 5662 5662 5662 5661 5662 5662 5663 5663 5664 5665 5665 5666 5666 5666 5666 5665 5664 5664 5664 5663 5663 5663 5663 5663 5663 5663 5664 5664 5664 5665 5666
5656 5656 5656 5656 5656 5656 5656 5656 5656 5655 5655 5655 5655 5655 5654 5654 5654 5654 5654 5655 5656 5656 5657 5657 5657 5658 5657 5657 5656 5655 5655 5655 5655 5654 5654 5654 5654 5653 5654 5654 5654 5655 5655 5656
5649 5649 5649 5650 5650 5650 5650 5649 5649 5649 5649 5648 5648 5647 5647 5647 5647 5646 5647 5647 5648 5648 5649 5649 5649 5649 5649 5649 5648 5647 5647 5646 5646 5645 5645 5645 5644 5644 5644 5644 5644 5644 5645 5645
5643 5643 5643 5644 5644 5644 5643 5643 5643 5643 5642 5642 5641 5641 5640 5640 5640 5639 5640 5641 5641 5641 5641 5642 5642 5642 5642 5641 5640 5639 5639 5638 5637 5637 5637 5636 5636 5635 5635 5635 5634 5634 5634 5635
5638 5638 5638 5638 5638 5638 5638 5637 5637 5637 5636 5635 5635 5634 5633 5633 5633 5633 5633 5634 5634 5634 5634 5634 5634 5634 5634 5633 5632 5631 5631 5630 5629 5629 5628 5628 5627 5626 5626 5626 5625 5625 5625 5625
5633 5632 5632 5632 5632 5632 5632 5632 5631 5631 5630 5629 5629 5628 5627 5627 5627 5627 5627 5627 5627 5627 5627 5627 5627 5626 5626 5625 5624 5623 5622 5622 5621 5620 5619 5619 5618 5617 5617 5616 5616 5615 5615 5615
5627 5627 5626 5626 5626 5626 5626 5626 5625 5625 5624 5623 5623 5622 5621 5621 5621 5620 5620 5620 5620 5620 5620 5619 5619 5618 5618 5616 5615 5615 5614 5613 5612 5611 5611 5610 5609 5608 5608 5607 5606 5605 5605 5605
5622 5622 5622 5621 5621 5621 5620 5620 5620 5619 5618 5617 5617 5616 5616 5615 5615 5614 5613 5613 5613 5613 5613 5612 5611 5610 5609 5608 5607 5606 5605 5604 5603 5603 5602 5601 5600 5600 5599 5598 5597 5597 5596 5596
5617 5616 5616 5615 5615 5615 5615 5615 5614 5613 5612 5611 5611 5610 5609 5609 5608 5607 5607 5606 5606 5605 5605 5604 5603 5602 5601 5600 5599 5598 5597 5596 5595 5594 5594 5593 5592 5592 5591 5590 5589 5589 5588 5588
5612 5611 5611 5611 5611 5610 5610 5609 5608 5608 5607 5606 5604 5604 5603 5602 5601 5600 5600 5599 5598 5598 5597 5597 5596 5595 5594 5593 5591 5590 5589 5588 5587 5587 5586 5585 5584 5583 5583 5582 5581 5581 5581 5580